Regional Weather Roundup
Issued by NWS State College, PA

Home | Current Version | Previous Version | Graphics & Text | Print | Product List | Glossary Off
Versions: 1 2 3 4 5 6 7 8 9 10 11 12 13 14 15 16 17 18 19 20 21 22 23 24 25 26 27 28 29 30 31 32 33 34 35 36 37 38 39 40 41 42 43 44 45 46 47 48 49 50

000
ASUS41 KCTP 021403
RWRCTP

REGIONAL WEATHER ROUNDUP
NATIONAL WEATHER SERVICE STATE COLLEGE PA
900 AM EST MON MAR 02 2015

Note: "fair" indicates few or no clouds below 12,000 feet with no
significant weather and/or obstructions to visibility.

* = STATION THAT DOES NOT REPORT PRECIPITATION /E.G. RAIN...SNOW...ETC/
    THUNDER OR FOG.

PAZ002>004-007>009-013>016-020>023-029>032-021500-
WESTERN PENNSYLVANIA

CITY           SKY/WX    TMP DP  RH WIND       PRES   REMARKS
ERIE           PTSUNNY   21  13  71 W14G22    30.35R WCI   8
MEADVILLE        N/A     20  11  68 W10       30.30R WCI   9
FRANKLIN*      CLOUDY    19  14  79 W13G22    30.31S WCI   7
NEW CASTLE     LGT SNOW  21  17  84 W9        30.39R FOG     WCI  11
BEAVER COUNTY  LGT SNOW  23  19  86 W8G16     30.37R WCI  14
BUTLER*        PTSUNNY   21  16  79 W9        30.37S WCI  11
PITTSBURGH INT FLURRIES  23  16  74 W13       30.38S WCI  11
PITTSBURGH     MOSUNNY   22  13  68 W10       30.37S WCI  11
INDIANA*       CLOUDY    23  18  80 W14G26    30.37R WCI  11
LATROBE        LGT SNOW  23  19  86 W12       30.41R WCI  12
WASHINGTON CO* MOSUNNY   25  16  68 W13       30.42R WCI  13
$$

PAZ004>006-010>012-017>019-024>028-033>037-041-042-045-046-049>053-021500-
CENTRAL PENNSYLVANIA

CITY           SKY/WX    TMP DP  RH WIND       PRES   REMARKS
BRADFORD       LGT SNOW  18  12  77 W14G22    30.19R VSB 3/4 WCI   4
DUBOIS         LGT SNOW  20  16  84 W14G21    30.25R VSB 1   WCI   7
CLEARFIELD     LGT SNOW  22  15  75 W12G20    30.27R WCI  10
JOHNSTOWN      LGT SNOW  19  16  88 NW15G26   30.24R VSB 3/4 WCI   5
ALTOONA        FLURRIES  25  15  66 NW18      30.28R WCI  11
STATE COLLEGE  PTSUNNY   25  16  68 NW20G29   30.26R WCI  11
WILLIAMSPORT   CLOUDY    28  14  55 NW16G25   30.24R
SELINSGROVE    MIX PCPN  29  15  56 W14G23    30.25R
FT INDIANTOWN  PTSUNNY   33  19  56 W20G31    30.20R
CAPITAL CITY   PTSUNNY   34  20  56 W20G37    30.23R
HARRISBURG     PTSUNNY   34  22  61 NW22G33   30.21R
YORK           CLOUDY    36  26  67 NW12      30.21R
$$

PAZ038>040-043-044-047-048-054-055-060>062-067>071-021500-
EASTERN PENNSYLVANIA

CITY           SKY/WX    TMP DP  RH WIND       PRES   REMARKS
SCRANTON       LGT SNOW  26  19  74 NW18      30.15R VSB 1   WCI  13
MOUNT POCONO   LGT SNOW  24  18  77 NW17G30   30.03R VSB 1   WCI  11
ALLENTOWN      LGT SNOW  32  27  80 NW9       30.15R
QUAKERTOWN*    CLOUDY    32  27  80 NW10G18   30.14R
READING        CLOUDY    32  26  78 W7        30.17R HAZE
LANCASTER      CLOUDY    31  28  89 NW7       30.18R FOG
COATESVILLE    CLOUDY    34  32  93 NW9       30.16R FOG
POTTSTOWN      CLOUDY    32  30  92 W5        30.18R FOG
BLUE BELL      CLOUDY    34  32  93 NW5       30.15R
DOYLESTOWN     CLOUDY    33  28  81 NW13G20   30.13R
WILLOW GROVE   NOT AVBL
NORTH PHILA    CLOUDY    37  28  70 W12G23    30.17R
PHILADELPHIA   PTSUNNY   37  30  75 NW12      30.17R
$$


USA.gov is the U.S. government's official web portal to all federal, state and local government web resources and services.